When you browse on this site, cookies collect data to enhance your experience and personalize the content and advertising you see.
Visit our Privacy Policy to learn more. By continuing to use the site, you agree to this use of cookies and data.
  • In Sweden
  • List of Countries
  • For 7 days
  • Water Temperature
  • Satellite Maps
  • Weather Map
  • Weather Widgets
  • user-avatar
    Login

    Hourly Weather Himino

    Today, 25 May, Saturday

    Time Temperature Precipitation Wind Pressure Humidity
    00:00 +15°C° 0 mm 1 mps 742 mmHg 88%
    01:00 +15°C° 0 mm 1 mps 742 mmHg 91%
    02:00 +14°C° 0 mm 1 mps 742 mmHg 97%
    03:00 +14°C° 0.6 mm 1 mps 742 mmHg 97%
    04:00 +14°C° 0.6 mm 1 mps 741 mmHg 98%
    05:00 +14°C° 0.6 mm 1 mps 741 mmHg 98%
    06:00 +15°C° 0.4 mm 1 mps 741 mmHg 97%
    07:00 +16°C° 0.4 mm 1 mps 741 mmHg 95%
    08:00 +16°C° 0.4 mm 1 mps 741 mmHg 93%
    09:00 +18°C° 0.1 mm 1 mps 741 mmHg 92%
    10:00 +18°C° 0.1 mm 1 mps 740 mmHg 91%
    11:00 +18°C° 0.1 mm 1 mps 740 mmHg 90%
    12:00 +19°C° 0.6 mm 1 mps 740 mmHg 87%
    13:00 +20°C° 0.6 mm 1 mps 740 mmHg 84%
    14:00 +21°C° 0.6 mm 1 mps 739 mmHg 81%
    15:00 +20°C° 1 mm 2 mps 739 mmHg 82%
    16:00 +20°C° 1 mm 2 mps 739 mmHg 82%
    17:00 +19°C° 1 mm 2 mps 739 mmHg 83%
    18:00 +18°C° 0.2 mm 2 mps 739 mmHg 85%
    19:00 +17°C° 0.2 mm 2 mps 739 mmHg 87%
    20:00 +15°C° 0.2 mm 2 mps 738 mmHg 89%
    21:00 +14°C° 0 mm 2 mps 739 mmHg 91%
    22:00 +13°C° 0 mm 2 mps 739 mmHg 93%
    23:00 +12°C° 0 mm 2 mps 739 mmHg 95%

    Tomorrow, 26 May, Sunday

    Time Temperature Precipitation Wind Pressure Humidity
    00:00 +12°C° 0 mm 2 mps 739 mmHg 96%
    01:00 +10°C° 0 mm 2 mps 739 mmHg 96%
    02:00 +9°C° 0 mm 2 mps 740 mmHg 97%
    03:00 +9°C° 0 mm 2 mps 740 mmHg 96%
    04:00 +9°C° 0 mm 2 mps 740 mmHg 95%
    05:00 +9°C° 0 mm 1 mps 740 mmHg 95%
    06:00 +10°C° 0 mm 2 mps 740 mmHg 88%
    07:00 +12°C° 0 mm 2 mps 740 mmHg 82%
    08:00 +13°C° 0 mm 2 mps 741 mmHg 76%
    09:00 +14°C° 0 mm 3 mps 740 mmHg 68%
    10:00 +16°C° 0 mm 3 mps 740 mmHg 61%
    11:00 +18°C° 0 mm 3 mps 740 mmHg 53%
    12:00 +18°C° 0 mm 3 mps 740 mmHg 52%
    13:00 +19°C° 0 mm 3 mps 740 mmHg 50%
    14:00 +20°C° 0 mm 3 mps 739 mmHg 49%
    15:00 +19°C° 0 mm 4 mps 739 mmHg 51%
    16:00 +19°C° 0 mm 4 mps 739 mmHg 53%
    17:00 +19°C° 0 mm 4 mps 739 mmHg 54%
    18:00 +17°C° 0 mm 4 mps 739 mmHg 60%
    19:00 +16°C° 0 mm 3 mps 739 mmHg 66%
    20:00 +14°C° 0 mm 3 mps 739 mmHg 72%
    21:00 +13°C° 0 mm 3 mps 739 mmHg 74%
    22:00 +12°C° 0 mm 3 mps 739 mmHg 76%
    23:00 +11°C° 0 mm 3 mps 739 mmHg 78%

    Day after tomorrow, 27 May, Monday

    Time Temperature Precipitation Wind Pressure Humidity
    00:00 +10°C° 0 mm 3 mps 739 mmHg 80%
    01:00 +9°C° 0 mm 3 mps 740 mmHg 83%
    02:00 +8°C° 0 mm 3 mps 740 mmHg 86%
    03:00 +9°C° 0 mm 3 mps 740 mmHg 86%
    04:00 +9°C° 0 mm 3 mps 740 mmHg 86%
    05:00 +8°C° 0 mm 4 mps 740 mmHg 86%
    06:00 +10°C° 0 mm 4 mps 741 mmHg 81%
    07:00 +12°C° 0 mm 5 mps 741 mmHg 76%
    08:00 +13°C° 0 mm 5 mps 741 mmHg 71%
    09:00 +14°C° 0.1 mm 5 mps 741 mmHg 68%
    10:00 +15°C° 0.1 mm 5 mps 741 mmHg 65%
    11:00 +16°C° 0.1 mm 5 mps 742 mmHg 62%
    12:00 +17°C° 0 mm 4 mps 742 mmHg 60%
    13:00 +18°C° 0 mm 4 mps 742 mmHg 58%
    14:00 +19°C° 0 mm 3 mps 742 mmHg 56%
    15:00 +19°C° 0 mm 3 mps 742 mmHg 59%
    16:00 +19°C° 0 mm 3 mps 742 mmHg 62%
    17:00 +19°C° 0 mm 3 mps 742 mmHg 64%
    18:00 +17°C° 0.8 mm 2 mps 742 mmHg 74%
    19:00 +16°C° 0.8 mm 2 mps 742 mmHg 84%
    20:00 +15°C° 0.8 mm 1 mps 741 mmHg 95%
    21:00 +15°C° 0.7 mm 1 mps 742 mmHg 95%
    22:00 +15°C° 0.7 mm 2 mps 742 mmHg 96%
    23:00 +15°C° 0.7 mm 2 mps 742 mmHg 97%

    28 May, Tuesday

    Time Temperature Precipitation Wind Pressure Humidity
    00:00 +14°C° 0 mm 2 mps 742 mmHg 98%
    01:00 +14°C° 0 mm 2 mps 742 mmHg 98%
    02:00 +13°C° 0 mm 2 mps 743 mmHg 99%
    03:00 +13°C° 0 mm 2 mps 743 mmHg 98%
    04:00 +13°C° 0 mm 2 mps 743 mmHg 98%
    05:00 +13°C° 0 mm 2 mps 744 mmHg 98%
    06:00 +15°C° 0 mm 2 mps 744 mmHg 94%
    07:00 +16°C° 0 mm 2 mps 744 mmHg 89%
    08:00 +18°C° 0 mm 1 mps 744 mmHg 84%
    09:00 +19°C° 0 mm 2 mps 745 mmHg 78%
    10:00 +20°C° 0 mm 2 mps 745 mmHg 71%
    11:00 +23°C° 0 mm 2 mps 745 mmHg 64%
    12:00 +24°C° 0.4 mm 2 mps 745 mmHg 65%
    13:00 +24°C° 0.4 mm 2 mps 745 mmHg 66%
    14:00 +24°C° 0.4 mm 2 mps 745 mmHg 67%
    15:00 +24°C° 1 mm 2 mps 744 mmHg 73%
    16:00 +24°C° 1 mm 2 mps 744 mmHg 79%
    17:00 +23°C° 1 mm 2 mps 744 mmHg 85%
    18:00 +21°C° 1.2 mm 2 mps 744 mmHg 88%
    19:00 +20°C° 1.2 mm 2 mps 743 mmHg 91%
    20:00 +19°C° 1.2 mm 3 mps 743 mmHg 95%
    21:00 +19°C° 0.4 mm 3 mps 743 mmHg 95%
    22:00 +18°C° 0.4 mm 3 mps 743 mmHg 95%
    23:00 +18°C° 0.4 mm 3 mps 743 mmHg 95%

    29 May, Wednesday

    Time Temperature Precipitation Wind Pressure Humidity
    00:00 +18°C° 0 mm 3 mps 743 mmHg 95%
    01:00 +18°C° 0 mm 3 mps 743 mmHg 96%
    02:00 +17°C° 0 mm 3 mps 743 mmHg 97%
    03:00 +17°C° 0 mm 3 mps 743 mmHg 96%
    04:00 +17°C° 0 mm 3 mps 743 mmHg 96%
    05:00 +17°C° 0 mm 3 mps 743 mmHg 95%
    06:00 +19°C° 0 mm 4 mps 742 mmHg 90%
    07:00 +20°C° 0 mm 4 mps 742 mmHg 84%
    08:00 +21°C° 0 mm 4 mps 742 mmHg 79%
    09:00 +23°C° 0 mm 5 mps 742 mmHg 71%
    10:00 +25°C° 0 mm 5 mps 742 mmHg 63%
    11:00 +26°C° 0 mm 6 mps 742 mmHg 55%
    12:00 +27°C° 0 mm 6 mps 742 mmHg 54%
    13:00 +27°C° 0 mm 6 mps 742 mmHg 54%
    14:00 +28°C° 0 mm 6 mps 742 mmHg 53%
    15:00 +27°C° 0.1 mm 6 mps 741 mmHg 57%
    16:00 +27°C° 0.1 mm 6 mps 741 mmHg 61%
    17:00 +26°C° 0.1 mm 5 mps 741 mmHg 65%
    18:00 +25°C° 0.8 mm 5 mps 741 mmHg 73%
    19:00 +22°C° 0.8 mm 4 mps 741 mmHg 81%
    20:00 +20°C° 0.8 mm 4 mps 741 mmHg 89%
    21:00 +20°C° 0.1 mm 4 mps 741 mmHg 90%
    22:00 +19°C° 0.1 mm 4 mps 741 mmHg 91%
    23:00 +18°C° 0.1 mm 3 mps 741 mmHg 93%

    30 May, Thursday

    Time Temperature Precipitation Wind Pressure Humidity
    00:00 +18°C° 0 mm 3 mps 741 mmHg 94%
    01:00 +18°C° 0 mm 3 mps 741 mmHg 95%
    02:00 +17°C° 0 mm 3 mps 741 mmHg 96%
    03:00 +17°C° 0 mm 3 mps 742 mmHg 94%
    04:00 +17°C° 0 mm 3 mps 743 mmHg 93%
    05:00 +15°C° 0 mm 4 mps 744 mmHg 92%
    06:00 +15°C° 0 mm 4 mps 744 mmHg 89%
    07:00 +14°C° 0 mm 4 mps 745 mmHg 86%
    08:00 +14°C° 0 mm 4 mps 746 mmHg 83%
    09:00 +15°C° 0 mm 4 mps 746 mmHg 72%
    10:00 +17°C° 0 mm 4 mps 747 mmHg 60%
    11:00 +18°C° 0 mm 4 mps 747 mmHg 49%
    12:00 +19°C° 0 mm 4 mps 748 mmHg 45%
    13:00 +19°C° 0 mm 4 mps 748 mmHg 41%
    14:00 +20°C° 0 mm 4 mps 749 mmHg 37%
    15:00 +20°C° 0 mm 3 mps 749 mmHg 40%
    16:00 +19°C° 0 mm 3 mps 749 mmHg 43%
    17:00 +19°C° 0 mm 3 mps 749 mmHg 45%
    18:00 +17°C° 0 mm 2 mps 750 mmHg 53%
    19:00 +15°C° 0 mm 2 mps 750 mmHg 61%
    20:00 +13°C° 0 mm 1 mps 750 mmHg 68%
    21:00 +12°C° 0 mm 1 mps 750 mmHg 69%
    22:00 +11°C° 0 mm 1 mps 751 mmHg 70%
    23:00 +10°C° 0 mm 1 mps 751 mmHg 71%
    Show more